This is the latest recevied weather packets stored in our database for station/object EA5CH. If no packets are shown the sender has not sent any weather packets the latest 10 day(s).
| Time | Temp. | Humidity | Pressure | Rain* | Wind** | Luminosity | Snow |
|---|---|---|---|---|---|---|---|
| 1777749919 | 18.33° C | 89% | 1018 hPa | 0 mm | - | - | - |
| 1777747519 | 18.89° C | 89% | 1018.2 hPa | 0 mm | - | - | - |
| 1777746319 | 18.33° C | 89% | 1018.3 hPa | 0 mm | - | - | - |
| 1777742119 | 18.89° C | 88% | 1018.7 hPa | 0 mm | - | - | - |
| 1777739119 | 19.44° C | 85% | 1019 hPa | 0 mm | - | - | - |
| 1777736119 | 20.56° C | 82% | 1019.3 hPa | 0 mm | - | - | - |
| 1777730119 | 20.56° C | 85% | 1021 hPa | 0 mm | - | - | - |
| 1777727119 | 20.56° C | 85% | 1020.6 hPa | 0 mm | - | - | - |
| 1777721738 | 20.56° C | 83% | 1021.6 hPa | 0 mm | - | - | - |
| 1777719319 | 20.56° C | 84% | 1022 hPa | 0 mm | - | - | - |
| 1777712719 | 21.11° C | 79% | 1022.3 hPa | 0 mm | - | - | - |
| 1777712119 | 20.56° C | 79% | 1022.3 hPa | 0 mm | - | - | - |
| 1777707919 | 20.56° C | 78% | 1022.3 hPa | 0 mm | - | - | - |
| 1777707319 | 20.56° C | 78% | 1022.3 hPa | 0 mm | - | - | - |
| 1777705519 | 20° C | 80% | 1022.2 hPa | 0 mm | - | - | - |
| 1777704920 | 19.44° C | 81% | 1022.2 hPa | 0 mm | - | - | - |
| 1777702519 | 18.89° C | 82% | 1022.3 hPa | 0 mm | - | - | - |
| 1777699519 | 17.78° C | 83% | 1022 hPa | 0 mm | - | - | - |
| 1777697719 | 17.78° C | 83% | 1021.7 hPa | 0 mm | - | - | - |
| 1777695919 | 17.78° C | 83% | 1021.8 hPa | 0 mm | - | - | - |
| 1777691719 | 17.22° C | 86% | 1022.1 hPa | 0 mm | - | - | - |
| 1777689319 | 17.22° C | 88% | 1022 hPa | 0 mm | - | - | - |
| 1777686939 | 17.22° C | 85% | 1022.3 hPa | 0 mm | - | - | - |
| 1777686319 | 17.78° C | 85% | 1022.4 hPa | 0 mm | - | - | - |
| 1777684519 | 17.22° C | 88% | 1022.7 hPa | 0 mm | - | - | - |
* Rain latest hour (hover to see other rain measurements)
** Current wind speed in m/s (hover to see current wind gust speed)